When you browse on this site, cookies collect data to enhance your experience and personalize the content and advertising you see.
Visit our Privacy Policy to learn more. By continuing to use the site, you agree to this use of cookies and data.
  • In Hungary
  • List of Countries
  • For 7 days
  • Water Temperature
  • Weather Map
  • News
  • Weather Widgets
  • user-avatar
    Login

    Hourly Weather Carvoeiro

    Today, 11 November, Monday

    Time Temperature Precipitation Wind Pressure Humidity
    00:00 +15°C° 0.1 mm 6 mps 763 mmHg 84%
    01:00 +16°C° 0.1 mm 7 mps 762 mmHg 85%
    02:00 +16°C° 0.1 mm 8 mps 761 mmHg 86%
    03:00 +16°C° 0 mm 7 mps 761 mmHg 88%
    04:00 +16°C° 0 mm 6 mps 761 mmHg 90%
    05:00 +15°C° 0 mm 6 mps 761 mmHg 91%
    06:00 +16°C° 0 mm 6 mps 761 mmHg 87%
    07:00 +17°C° 0 mm 6 mps 761 mmHg 84%
    08:00 +17°C° 0 mm 6 mps 761 mmHg 80%
    09:00 +19°C° 0 mm 6 mps 761 mmHg 79%
    10:00 +20°C° 0 mm 6 mps 761 mmHg 78%
    11:00 +20°C° 0 mm 5 mps 761 mmHg 77%
    12:00 +20°C° 0 mm 6 mps 760 mmHg 76%
    13:00 +20°C° 0 mm 7 mps 760 mmHg 75%
    14:00 +20°C° 0 mm 7 mps 759 mmHg 73%
    15:00 +18°C° 0 mm 7 mps 759 mmHg 76%
    16:00 +17°C° 0 mm 7 mps 759 mmHg 78%
    17:00 +16°C° 0 mm 7 mps 759 mmHg 80%
    18:00 +15°C° 0 mm 7 mps 760 mmHg 81%
    19:00 +14°C° 0 mm 7 mps 760 mmHg 81%
    20:00 +12°C° 0 mm 7 mps 760 mmHg 82%
    21:00 +12°C° 0 mm 7 mps 760 mmHg 82%
    22:00 +11°C° 0 mm 8 mps 760 mmHg 82%
    23:00 +11°C° 0 mm 8 mps 760 mmHg 81%

    Tomorrow, 12 November, Tuesday

    Time Temperature Precipitation Wind Pressure Humidity
    00:00 +11°C° 0 mm 7 mps 760 mmHg 82%
    01:00 +10°C° 0 mm 7 mps 760 mmHg 83%
    02:00 +10°C° 0 mm 7 mps 759 mmHg 84%
    03:00 +10°C° 0 mm 7 mps 759 mmHg 83%
    04:00 +10°C° 0 mm 6 mps 759 mmHg 81%
    05:00 +10°C° 0 mm 6 mps 760 mmHg 80%
    06:00 +11°C° 0 mm 6 mps 760 mmHg 75%
    07:00 +12°C° 0 mm 7 mps 760 mmHg 69%
    08:00 +12°C° 0 mm 7 mps 760 mmHg 64%
    09:00 +15°C° 0 mm 7 mps 760 mmHg 59%
    10:00 +16°C° 0 mm 7 mps 760 mmHg 55%
    11:00 +18°C° 0 mm 7 mps 760 mmHg 51%
    12:00 +18°C° 0 mm 7 mps 760 mmHg 51%
    13:00 +18°C° 0 mm 7 mps 759 mmHg 52%
    14:00 +18°C° 0 mm 8 mps 759 mmHg 53%
    15:00 +17°C° 0 mm 7 mps 759 mmHg 61%
    16:00 +15°C° 0 mm 7 mps 759 mmHg 68%
    17:00 +14°C° 0 mm 7 mps 760 mmHg 76%
    18:00 +14°C° 0 mm 6 mps 760 mmHg 81%
    19:00 +13°C° 0 mm 6 mps 760 mmHg 86%
    20:00 +12°C° 0 mm 5 mps 760 mmHg 92%
    21:00 +13°C° 0 mm 5 mps 760 mmHg 92%
    22:00 +13°C° 0 mm 4 mps 759 mmHg 93%
    23:00 +13°C° 0 mm 4 mps 759 mmHg 94%

    Day after tomorrow, 13 November, Wednesday

    Time Temperature Precipitation Wind Pressure Humidity
    00:00 +13°C° 0 mm 4 mps 759 mmHg 94%
    01:00 +13°C° 0 mm 4 mps 758 mmHg 94%
    02:00 +13°C° 0 mm 5 mps 758 mmHg 95%
    03:00 +14°C° 0 mm 5 mps 758 mmHg 94%
    04:00 +14°C° 0 mm 5 mps 757 mmHg 93%
    05:00 +14°C° 0 mm 5 mps 757 mmHg 92%
    06:00 +15°C° 0.1 mm 5 mps 757 mmHg 89%
    07:00 +16°C° 0.1 mm 6 mps 757 mmHg 86%
    08:00 +17°C° 0.1 mm 6 mps 758 mmHg 84%
    09:00 +19°C° 0.1 mm 6 mps 758 mmHg 77%
    10:00 +20°C° 0.1 mm 6 mps 758 mmHg 69%
    11:00 +20°C° 0.1 mm 6 mps 758 mmHg 62%
    12:00 +20°C° 0 mm 6 mps 758 mmHg 62%
    13:00 +20°C° 0 mm 6 mps 758 mmHg 62%
    14:00 +20°C° 0 mm 6 mps 757 mmHg 62%
    15:00 +19°C° 0 mm 6 mps 757 mmHg 69%
    16:00 +16°C° 0 mm 5 mps 758 mmHg 76%
    17:00 +15°C° 0 mm 5 mps 758 mmHg 84%
    18:00 +14°C° 0 mm 5 mps 758 mmHg 83%
    19:00 +13°C° 0 mm 5 mps 758 mmHg 83%
    20:00 +13°C° 0 mm 5 mps 759 mmHg 82%
    21:00 +12°C° 0 mm 5 mps 759 mmHg 85%
    22:00 +12°C° 0 mm 5 mps 759 mmHg 87%
    23:00 +11°C° 0 mm 4 mps 758 mmHg 90%

    14 November, Thursday

    Time Temperature Precipitation Wind Pressure Humidity
    00:00 +10°C° 0 mm 5 mps 758 mmHg 88%
    01:00 +12°C° 0 mm 5 mps 758 mmHg 86%
    02:00 +12°C° 0 mm 5 mps 758 mmHg 84%
    03:00 +11°C° 0 mm 6 mps 757 mmHg 81%
    04:00 +13°C° 0 mm 6 mps 757 mmHg 79%
    05:00 +12°C° 0 mm 7 mps 757 mmHg 77%
    06:00 +12°C° 0.1 mm 7 mps 757 mmHg 75%
    07:00 +13°C° 0.1 mm 8 mps 757 mmHg 73%
    08:00 +13°C° 0.1 mm 8 mps 757 mmHg 71%
    09:00 +13°C° 0.1 mm 8 mps 757 mmHg 69%
    10:00 +13°C° 0.1 mm 8 mps 757 mmHg 67%
    11:00 +12°C° 0.1 mm 9 mps 756 mmHg 65%
    12:00 +13°C° 0.1 mm 9 mps 756 mmHg 60%
    13:00 +13°C° 0.1 mm 9 mps 756 mmHg 55%
    14:00 +14°C° 0.1 mm 10 mps 756 mmHg 49%
    15:00 +13°C° 0 mm 9 mps 756 mmHg 56%
    16:00 +11°C° 0 mm 8 mps 756 mmHg 63%
    17:00 +10°C° 0 mm 7 mps 756 mmHg 70%
    18:00 +10°C° 0.1 mm 7 mps 756 mmHg 73%
    19:00 +9°C° 0.1 mm 7 mps 756 mmHg 75%
    20:00 +9°C° 0.1 mm 6 mps 756 mmHg 78%
    21:00 +9°C° 0 mm 6 mps 756 mmHg 80%
    22:00 +8°C° 0 mm 6 mps 756 mmHg 82%
    23:00 +8°C° 0 mm 6 mps 756 mmHg 84%

    15 November, Friday

    Time Temperature Precipitation Wind Pressure Humidity
    00:00 +8°C° 0.4 mm 6 mps 755 mmHg 83%
    01:00 +9°C° 0.4 mm 6 mps 755 mmHg 83%
    02:00 +9°C° 0.4 mm 7 mps 754 mmHg 82%
    03:00 +9°C° 0.3 mm 6 mps 754 mmHg 83%
    04:00 +8°C° 0.3 mm 6 mps 754 mmHg 83%
    05:00 +8°C° 0.3 mm 6 mps 753 mmHg 84%
    06:00 +8°C° 0.1 mm 6 mps 754 mmHg 79%
    07:00 +9°C° 0.1 mm 6 mps 754 mmHg 75%
    08:00 +9°C° 0.1 mm 7 mps 754 mmHg 70%
    09:00 +10°C° 0 mm 7 mps 754 mmHg 64%
    10:00 +12°C° 0 mm 7 mps 754 mmHg 57%
    11:00 +14°C° 0 mm 7 mps 754 mmHg 51%
    12:00 +13°C° 0 mm 8 mps 754 mmHg 50%
    13:00 +13°C° 0 mm 8 mps 753 mmHg 50%
    14:00 +13°C° 0 mm 8 mps 753 mmHg 50%
    15:00 +12°C° 0 mm 8 mps 753 mmHg 56%
    16:00 +10°C° 0 mm 7 mps 753 mmHg 62%
    17:00 +9°C° 0 mm 7 mps 753 mmHg 68%
    18:00 +9°C° 0.1 mm 7 mps 753 mmHg 70%
    19:00 +9°C° 0.1 mm 6 mps 754 mmHg 71%
    20:00 +9°C° 0.1 mm 6 mps 754 mmHg 73%
    21:00 +8°C° 0 mm 6 mps 754 mmHg 74%
    22:00 +8°C° 0 mm 7 mps 754 mmHg 75%
    23:00 +8°C° 0 mm 7 mps 755 mmHg 76%

    16 November, Saturday

    Time Temperature Precipitation Wind Pressure Humidity
    00:00 +6°C° 0 mm 7 mps 755 mmHg 72%
    01:00 +6°C° 0 mm 7 mps 755 mmHg 68%
    02:00 +5°C° 0 mm 8 mps 755 mmHg 64%
    03:00 +5°C° 0 mm 7 mps 756 mmHg 63%
    04:00 +4°C° 0 mm 7 mps 756 mmHg 62%
    05:00 +4°C° 0 mm 7 mps 757 mmHg 61%
    06:00 +5°C° 0 mm 7 mps 758 mmHg 58%
    07:00 +6°C° 0 mm 7 mps 758 mmHg 55%
    08:00 +8°C° 0 mm 7 mps 759 mmHg 53%
    09:00 +10°C° 0 mm 7 mps 759 mmHg 48%
    10:00 +12°C° 0 mm 7 mps 759 mmHg 43%
    11:00 +15°C° 0 mm 7 mps 760 mmHg 39%
    12:00 +15°C° 0 mm 6 mps 759 mmHg 40%
    13:00 +15°C° 0 mm 6 mps 759 mmHg 42%
    14:00 +15°C° 0 mm 6 mps 759 mmHg 43%
    15:00 +14°C° 0 mm 6 mps 759 mmHg 52%
    16:00 +12°C° 0 mm 5 mps 759 mmHg 60%
    17:00 +10°C° 0 mm 5 mps 760 mmHg 69%
    18:00 +9°C° 0 mm 5 mps 760 mmHg 73%
    19:00 +10°C° 0 mm 4 mps 760 mmHg 77%
    20:00 +8°C° 0 mm 4 mps 761 mmHg 81%
    21:00 +9°C° 0 mm 3 mps 761 mmHg 81%
    22:00 +9°C° 0 mm 3 mps 760 mmHg 81%
    23:00 +9°C° 0 mm 2 mps 760 mmHg 82%
    Show more